Tracking 29892 objects as of 21-Nov-2024
HD Live streaming from Space Station
objects crossing your sky now

OPS 4682 DEB

Track OPS 4682 DEB now!
10-day predictions


NORAD ID: 38393
Int'l Code: 1965-027CW
Perigee: 1,255.9 km
Apogee: 1,297.6 km
Inclination: 90.2 °
Period: 110.9 minutes
Semi major axis: 7647 km
RCS: 0.0085 m2 (small)
Launch date: April 3, 1965
Source: United States (US)
Launch site: AIR FORCE WESTERN TEST RANGE (AFWTR)

Note: This is SATELLITE DEBRIS
Your satellite tracking list
Your tracking list is empty




NASA's NSSDC Master Catalog

Two Line Element Set (TLE):
1 38393U 65027CW  24321.88079974  .00000958  00000-0  32402-2 0  9995
2 38393  90.2459   3.5884 0027251  99.9118 260.5081 12.98091757550910
Source of the keplerian elements: AFSPC